logo tempoitalia

Diretta Meteo Urum-Qi-Diwopu, Cinalunedì 31 agosto ore 11:00

Mappa
Sereno 32 °C Sereno 24 Ore: T.min 26 T.max 37
Ponente Nord Km/h 3.6 Punto di rugiada: 10 °C Umidità: 25% Visibilità: 10 Km
Il sole sorge alle: 05:32 Il sole tramonta alle: 18:48
31 Agosto 2026 11:00 tempo osservato: Sereno Sereno 32 25 1009 vento: Nord N 3.6
31 Agosto 2026 10:30 tempo osservato: Sereno Sereno 32 24 1010 vento: Nord N 3.6
31 Agosto 2026 10:00 tempo osservato: Sereno Sereno 30 27 1010 vento: Nord N 3.6
31 Agosto 2026 09:30 tempo osservato: Sereno Sereno 30 25 1011 vento: Nord N 7.2
31 Agosto 2026 09:00 tempo osservato: Sereno Sereno 29 28 1011 vento: Nord N 3.6
31 Agosto 2026 08:30 tempo osservato: Sereno Sereno 28 28 1011 vento: Nord N 3.6
31 Agosto 2026 08:00 tempo osservato: Sereno Sereno 28 28 1011 vento: Nord N 7.2
31 Agosto 2026 07:30 tempo osservato: Sereno Sereno 27 32 1012 vento: Nord N 7.2
31 Agosto 2026 07:00 tempo osservato: Sereno Sereno 27 32 1011 vento: Nord N 7.2
31 Agosto 2026 06:30 tempo osservato: Sereno Sereno 27 32 1011 vento: Nord N 7.2
31 Agosto 2026 06:00 tempo osservato: Sereno Sereno 26 34 1011 vento: Nord O/SO 10.8
31 Agosto 2026 05:30 tempo osservato: Sereno Sereno 26 34 1011 vento: Nord O 14.4
31 Agosto 2026 05:00 tempo osservato: Sereno Sereno 26 34 1011 vento: Nord O 14.4
31 Agosto 2026 04:30 tempo osservato: Sereno Sereno 27 28 1011 vento: Nord O 14.4
31 Agosto 2026 04:00 tempo osservato: Sereno Sereno 27 28 1010 vento: Nord S/SO 10.8
31 Agosto 2026 03:30 tempo osservato: Sereno Sereno 27 28 1010 vento: Nord N 3.6
31 Agosto 2026 03:00 tempo osservato: Sereno Sereno 27 28 1011 vento: Nord O/NO 14.4
31 Agosto 2026 02:30 tempo osservato: Sereno Sereno 28 24 1010 vento: Nord S 10.8
31 Agosto 2026 02:00 tempo osservato: Sereno Sereno 28 26 1010 vento: Nord S/SE 10.8
31 Agosto 2026 01:30 tempo osservato: Sereno Sereno 28 28 1010 vento: Nord S/SE 14.4
31 Agosto 2026 01:00 tempo osservato: Sereno Sereno 29 26 1010 vento: Nord S 10.8
31 Agosto 2026 00:30 tempo osservato: Sereno Sereno 29 26 1011 vento: Nord S 10.8
31 Agosto 2026 00:00 tempo osservato: Sereno Sereno 29 26 1011 vento: Nord S 10.8
30 Agosto 2026 23:30 tempo osservato: Sereno Sereno 29 28 1011 vento: Nord SO 10.8
30 Agosto 2026 23:00 tempo osservato: Sereno Sereno 29 28 1011 vento: Nord N 7.2
30 Agosto 2026 22:30 tempo osservato: Sereno Sereno 29 28 1011 vento: Nord N 7.2
30 Agosto 2026 22:00 tempo osservato: Sereno Sereno 29 28 1010 vento: Nord N 7.2
30 Agosto 2026 21:30 tempo osservato: Sereno Sereno 29 28 1010 vento: Nord SO 10.8
30 Agosto 2026 21:00 tempo osservato: Sereno Sereno 29 28 1010 vento: Nord O 14.4
30 Agosto 2026 20:30 tempo osservato: Sereno Sereno 30 27 1009 vento: Nord O 14.4
30 Agosto 2026 20:00 tempo osservato: Sereno Sereno 30 25 1009 vento: Nord N 7.2
30 Agosto 2026 19:30 tempo osservato: Sereno Sereno 31 22 1008 vento: Nord O 10.8
30 Agosto 2026 19:00 tempo osservato: Sereno Sereno 33 19 1008 vento: Nord O 10.8
30 Agosto 2026 18:30 tempo osservato: Sereno Sereno 34 18 1008 vento: Nord O/SO 14.4
30 Agosto 2026 18:00 tempo osservato: Sereno Sereno 34 17 1008 vento: Nord O 10.8
30 Agosto 2026 17:30 tempo osservato: Sereno Sereno 34 18 1008 vento: Nord O 18
30 Agosto 2026 17:00 tempo osservato: Sereno Sereno 35 17 1008 vento: Nord O/NO 14.4
30 Agosto 2026 16:47 tempo osservato: Sereno Sereno 34 18 1008 vento: Nord O 14.4
30 Agosto 2026 16:30 tempo osservato: Sereno Sereno 35 17 1007 vento: Nord N/NO 18
30 Agosto 2026 16:00 tempo osservato: Sereno Sereno 35 17 1008 vento: Nord N/NO 18
30 Agosto 2026 15:30 tempo osservato: Sereno Sereno 36 16 1007 vento: Nord N/NO 18
30 Agosto 2026 15:00 tempo osservato: Sereno Sereno 37 13 1007 vento: Nord N/NO 18
30 Agosto 2026 14:30 tempo osservato: Sereno Sereno 36 15 1008 vento: Nord N 18
30 Agosto 2026 14:00 tempo osservato: Sereno Sereno 36 16 1008 vento: Nord N 18
30 Agosto 2026 13:30 tempo osservato: Sereno Sereno 35 19 1009 vento: Nord N/NE 14.4
30 Agosto 2026 13:00 tempo osservato: Sereno Sereno 34 18 1009 vento: Nord N/NE 14.4
30 Agosto 2026 12:30 tempo osservato: Sereno Sereno 34 18 1009 vento: Nord N/NE 14.4
30 Agosto 2026 12:00 tempo osservato: Sereno Sereno 34 18 1010 vento: Nord N/NE 10.8